Time,TemperatureF,DewpointF,PressureIn,WindDirection,WindDirectionDegrees,WindSpeedMPH,WindSpeedGustMPH,Humidity,HourlyPrecipIn,Conditions,Clouds,dailyrainin,SoftwareType,DateUTC
2013-03-01 00:00:00,46.4,39.9,29.80,SW,225,0.0,0.0,78,0.00,,---,0.00,VWS V14.01,2013-03-01 05:00:00,
2013-03-01 00:01:00,47.3,39.5,29.79,South,180,0.0,0.0,74,0.00,,---,0.00,VWS V14.01,2013-03-01 05:01:00,
2013-03-01 00:05:00,45.9,39.4,29.80,SW,225,0.0,0.0,78,0.00,,---,0.00,VWS V14.01,2013-03-01 05:05:00,
2013-03-01 00:06:00,47.5,40.0,29.79,South,180,0.0,0.0,75,0.00,,---,0.00,VWS V14.01,2013-03-01 05:06:00,
2013-03-01 00:10:00,46.2,40.4,29.80,SW,225,0.0,0.0,80,0.00,,---,0.00,VWS V14.01,2013-03-01 05:10:00,
2013-03-01 00:11:00,47.5,40.0,29.79,South,180,0.0,0.0,75,0.00,,---,0.00,VWS V14.01,2013-03-01 05:11:00,
2013-03-01 00:15:00,46.2,40.7,29.82,SW,225,0.0,0.0,81,0.00,,---,0.00,VWS V14.01,2013-03-01 05:15:00,
2013-03-01 00:16:00,47.5,40.0,29.79,South,180,0.0,0.0,75,0.00,,---,0.00,VWS V14.01,2013-03-01 05:16:00,
2013-03-01 00:20:00,45.9,40.0,29.82,SW,225,0.0,0.0,80,0.00,,---,0.00,VWS V14.01,2013-03-01 05:20:00,
2013-03-01 00:21:00,47.1,39.6,29.79,South,180,0.0,0.0,75,0.00,,---,0.00,VWS V14.01,2013-03-01 05:21:00,
2013-03-01 00:25:00,45.9,40.0,29.82,SW,225,0.0,0.0,80,0.00,,---,0.00,VWS V14.01,2013-03-01 05:25:00,
2013-03-01 00:26:00,46.8,39.3,29.79,SSW,202,0.0,0.0,75,0.00,,---,0.00,VWS V14.01,2013-03-01 05:26:00,
2013-03-01 00:30:00,45.5,39.7,29.80,SW,225,0.0,0.0,80,0.00,,---,0.00,VWS V14.01,2013-03-01 05:30:00,
2013-03-01 00:31:00,46.9,39.8,29.79,NW,315,0.0,0.0,76,0.00,,---,0.00,VWS V14.01,2013-03-01 05:31:00,
2013-03-01 00:35:00,45.5,40.0,29.80,SW,225,0.0,0.0,81,0.00,,---,0.00,VWS V14.01,2013-03-01 05:35:00,
2013-03-01 00:36:00,46.9,39.8,29.79,WNW,292,0.0,0.0,76,0.00,,---,0.00,VWS V14.01,2013-03-01 05:36:00,
2013-03-01 00:40:00,45.3,39.8,29.80,SW,225,0.0,0.0,81,0.00,,---,0.00,VWS V14.01,2013-03-01 05:40:00,
2013-03-01 00:41:00,46.6,39.8,29.79,WNW,292,0.0,0.0,77,0.00,,---,0.00,VWS V14.01,2013-03-01 05:41:00,
2013-03-01 00:45:00,45.3,39.8,29.80,SW,225,0.0,0.0,81,0.00,,---,0.00,VWS V14.01,2013-03-01 05:45:00,
2013-03-01 00:46:00,46.4,39.6,29.79,WNW,292,0.0,0.0,77,0.00,,---,0.00,VWS V14.01,2013-03-01 05:46:00,
2013-03-01 00:50:00,45.3,40.2,29.80,SW,225,0.0,0.0,82,0.00,,---,0.00,VWS V14.01,2013-03-01 05:50:00,
2013-03-01 00:51:00,46.4,39.6,29.79,SW,225,0.0,0.0,77,0.00,,---,0.00,VWS V14.01,2013-03-01 05:51:00,
2013-03-01 00:55:00,45.3,40.2,29.80,SW,225,0.0,0.0,82,0.00,,---,0.00,VWS V14.01,2013-03-01 05:55:00,
2013-03-01 00:56:00,46.8,40.3,29.79,SW,225,0.0,0.0,78,0.00,,---,0.00,VWS V14.01,2013-03-01 05:56:00,
2013-03-01 01:00:00,44.8,39.6,29.80,SW,225,0.0,0.0,82,0.00,,---,0.00,VWS V14.01,2013-03-01 06:00:00,
2013-03-01 01:01:00,46.4,39.9,29.79,SW,225,0.0,0.0,78,0.00,,---,0.00,VWS V14.01,2013-03-01 06:01:00,
2013-03-01 01:05:00,44.6,39.5,29.80,SW,225,0.0,0.0,82,0.00,,---,0.00,VWS V14.01,2013-03-01 06:05:00,
2013-03-01 01:06:00,45.9,39.4,29.79,SW,225,0.0,0.0,78,0.00,,---,0.00,VWS V14.01,2013-03-01 06:06:00,
2013-03-01 01:10:00,44.2,39.1,29.80,SW,225,0.0,0.0,82,0.00,,---,0.00,VWS V14.01,2013-03-01 06:10:00,
2013-03-01 01:11:00,46.2,40.4,29.79,SW,225,0.0,0.0,80,0.00,,---,0.00,VWS V14.01,2013-03-01 06:11:00,
2013-03-01 01:15:00,44.1,38.9,29.80,SW,225,0.0,0.0,82,0.00,,---,0.00,VWS V14.01,2013-03-01 06:15:00,
2013-03-01 01:16:00,46.2,40.7,29.82,SW,225,0.0,0.0,81,0.00,,---,0.00,VWS V14.01,2013-03-01 06:16:00,
2013-03-01 01:20:00,44.4,39.6,29.80,SW,225,0.0,0.0,83,0.00,,---,0.00,VWS V14.01,2013-03-01 06:20:00,
2013-03-01 01:21:00,45.9,40.0,29.82,SW,225,0.0,0.0,80,0.00,,---,0.00,VWS V14.01,2013-03-01 06:21:00,
2013-03-01 01:25:00,44.8,39.9,29.80,SW,225,0.0,0.0,83,0.00,,---,0.00,VWS V14.01,2013-03-01 06:25:00,
2013-03-01 01:26:00,45.9,40.0,29.82,SW,225,0.0,0.0,80,0.00,,---,0.00,VWS V14.01,2013-03-01 06:26:00,
2013-03-01 01:30:00,45.3,41.1,29.80,WSW,248,0.0,0.0,85,0.00,,---,0.00,VWS V14.01,2013-03-01 06:30:00,
2013-03-01 01:31:00,45.5,39.7,29.79,SW,225,0.0,0.0,80,0.00,,---,0.00,VWS V14.01,2013-03-01 06:31:00,
2013-03-01 01:35:00,45.5,41.3,29.80,WSW,248,0.0,0.0,85,0.00,,---,0.00,VWS V14.01,2013-03-01 06:35:00,
2013-03-01 01:40:00,45.9,41.3,29.80,WSW,248,0.0,0.0,84,0.00,,---,0.00,VWS V14.01,2013-03-01 06:40:00,
2013-03-01 01:41:00,45.5,40.0,29.79,SW,225,0.0,0.0,81,0.00,,---,0.00,VWS V14.01,2013-03-01 06:41:00,
2013-03-01 01:45:00,45.9,41.3,29.76,WSW,248,0.0,0.0,84,0.00,,---,0.00,VWS V14.01,2013-03-01 06:45:00,
2013-03-01 01:46:00,45.3,39.8,29.79,SW,225,0.0,0.0,81,0.00,,---,0.00,VWS V14.01,2013-03-01 06:46:00,
2013-03-01 01:50:00,46.4,42.1,29.76,West,270,0.0,0.0,85,0.00,,---,0.00,VWS V14.01,2013-03-01 06:50:00,
2013-03-01 01:51:00,45.3,40.2,29.79,SW,225,0.0,0.0,82,0.00,,---,0.00,VWS V14.01,2013-03-01 06:51:00,
2013-03-01 01:55:00,47.1,43.2,29.76,WNW,292,0.0,2.5,86,0.00,,---,0.00,VWS V14.01,2013-03-01 06:55:00,
2013-03-01 01:56:00,45.3,40.2,29.79,SW,225,0.0,0.0,82,0.00,,---,0.00,VWS V14.01,2013-03-01 06:56:00,
2013-03-01 02:00:00,47.7,44.0,29.76,NW,315,1.3,3.4,87,0.00,,---,0.00,VWS V14.01,2013-03-01 07:00:00,
2013-03-01 02:01:00,44.8,39.6,29.79,SW,225,0.0,0.0,82,0.00,,---,0.00,VWS V14.01,2013-03-01 07:01:00,
2013-03-01 02:05:00,48.2,44.2,29.76,NW,315,2.0,3.4,86,0.00,,---,0.00,VWS V14.01,2013-03-01 07:05:00,
2013-03-01 02:06:00,44.6,39.5,29.79,SW,225,0.0,0.0,82,0.00,,---,0.00,VWS V14.01,2013-03-01 07:06:00,
2013-03-01 02:10:00,48.4,43.2,29.76,NNW,338,2.5,2.7,82,0.00,,---,0.00,VWS V14.01,2013-03-01 07:10:00,
2013-03-01 02:11:00,44.2,39.1,29.79,SW,225,0.0,0.0,82,0.00,,---,0.00,VWS V14.01,2013-03-01 07:11:00,
2013-03-01 02:15:00,48.6,41.3,29.76,NW,315,2.0,4.0,76,0.00,,---,0.00,VWS V14.01,2013-03-01 07:15:00,
2013-03-01 02:16:00,44.1,38.9,29.79,SW,225,0.0,0.0,82,0.00,,---,0.00,VWS V14.01,2013-03-01 07:16:00,
2013-03-01 02:20:00,48.7,40.1,29.76,NW,315,2.5,3.1,72,0.00,,---,0.00,VWS V14.01,2013-03-01 07:20:00,
2013-03-01 02:21:00,44.4,39.6,29.79,SW,225,0.0,0.0,83,0.00,,---,0.00,VWS V14.01,2013-03-01 07:21:00,
2013-03-01 02:25:00,48.6,38.9,29.76,WNW,292,2.5,4.0,69,0.00,,---,0.00,VWS V14.01,2013-03-01 07:25:00,
2013-03-01 02:26:00,44.8,39.9,29.79,SW,225,0.0,0.0,83,0.00,,---,0.00,VWS V14.01,2013-03-01 07:26:00,
2013-03-01 02:30:00,48.7,38.3,29.76,NW,315,1.6,3.8,67,0.00,,---,0.00,VWS V14.01,2013-03-01 07:30:00,
2013-03-01 02:31:00,45.3,41.1,29.79,WSW,248,0.0,0.0,85,0.00,,---,0.00,VWS V14.01,2013-03-01 07:31:00,
2013-03-01 02:35:00,48.6,37.3,29.76,NNW,338,2.7,3.8,65,0.00,,---,0.00,VWS V14.01,2013-03-01 07:35:00,
2013-03-01 02:36:00,45.5,41.3,29.79,WSW,248,0.0,0.0,85,0.00,,---,0.00,VWS V14.01,2013-03-01 07:36:00,
2013-03-01 02:40:00,48.4,37.2,29.76,WNW,292,2.2,2.7,65,0.00,,---,0.00,VWS V14.01,2013-03-01 07:40:00,
2013-03-01 02:41:00,45.9,41.3,29.79,WSW,248,0.0,0.0,84,0.00,,---,0.00,VWS V14.01,2013-03-01 07:41:00,
2013-03-01 02:45:00,48.2,36.6,29.76,WNW,292,1.3,2.5,64,0.00,,---,0.00,VWS V14.01,2013-03-01 07:45:00,
2013-03-01 02:46:00,45.9,41.3,29.76,WSW,248,0.0,0.0,84,0.00,,---,0.00,VWS V14.01,2013-03-01 07:46:00,
2013-03-01 02:50:00,48.0,36.4,29.76,WNW,292,0.9,2.7,64,0.00,,---,0.00,VWS V14.01,2013-03-01 07:50:00,
2013-03-01 02:51:00,46.4,42.1,29.76,West,270,0.0,0.0,85,0.00,,---,0.00,VWS V14.01,2013-03-01 07:51:00,
2013-03-01 02:55:00,47.8,36.3,29.76,WNW,292,0.0,3.1,64,0.00,,---,0.00,VWS V14.01,2013-03-01 07:55:00,
2013-03-01 02:56:00,47.1,43.2,29.76,WNW,292,0.0,2.5,86,0.00,,---,0.00,VWS V14.01,2013-03-01 07:56:00,
2013-03-01 03:00:00,47.5,35.9,29.76,WNW,292,0.0,0.9,64,0.00,,---,0.00,VWS V14.01,2013-03-01 08:00:00,
2013-03-01 03:01:00,47.7,44.0,29.76,NW,315,1.3,3.4,87,0.00,,---,0.00,VWS V14.01,2013-03-01 08:01:00,
2013-03-01 03:05:00,47.1,35.6,29.76,WNW,292,0.0,2.0,64,0.00,,---,0.00,VWS V14.01,2013-03-01 08:05:00,
2013-03-01 03:06:00,48.2,44.2,29.76,NW,315,2.0,3.4,86,0.00,,---,0.00,VWS V14.01,2013-03-01 08:06:00,
2013-03-01 03:10:00,47.1,35.6,29.76,NW,315,0.0,3.6,64,0.00,,---,0.00,VWS V14.01,2013-03-01 08:10:00,
2013-03-01 03:11:00,48.4,43.2,29.76,NNW,338,2.5,2.7,82,0.00,,---,0.00,VWS V14.01,2013-03-01 08:11:00,
2013-03-01 03:15:00,46.8,35.2,29.76,NW,315,0.0,0.0,64,0.00,,---,0.00,VWS V14.01,2013-03-01 08:15:00,
2013-03-01 03:16:00,48.6,41.3,29.76,NW,315,2.0,4.0,76,0.00,,---,0.00,VWS V14.01,2013-03-01 08:16:00,
2013-03-01 03:20:00,46.6,35.1,29.76,WNW,292,0.0,0.0,64,0.00,,---,0.00,VWS V14.01,2013-03-01 08:20:00,
2013-03-01 03:21:00,48.7,40.1,29.76,NW,315,2.5,3.1,72,0.00,,---,0.00,VWS V14.01,2013-03-01 08:21:00,
2013-03-01 03:25:00,46.4,35.3,29.76,WNW,292,0.0,0.0,65,0.00,,---,0.00,VWS V14.01,2013-03-01 08:25:00,
2013-03-01 03:26:00,48.6,38.9,29.76,WNW,292,2.5,4.0,69,0.00,,---,0.00,VWS V14.01,2013-03-01 08:26:00,
2013-03-01 03:30:00,46.2,35.1,29.76,NW,315,0.0,0.0,65,0.00,,---,0.00,VWS V14.01,2013-03-01 08:30:00,
2013-03-01 03:31:00,48.7,38.3,29.76,NW,315,1.6,3.8,67,0.00,,---,0.00,VWS V14.01,2013-03-01 08:31:00,
2013-03-01 03:35:00,46.2,35.5,29.76,WNW,292,0.0,2.5,66,0.00,,---,0.00,VWS V14.01,2013-03-01 08:35:00,
2013-03-01 03:36:00,48.6,37.3,29.76,NNW,338,2.7,3.8,65,0.00,,---,0.00,VWS V14.01,2013-03-01 08:36:00,
2013-03-01 03:40:00,46.4,35.7,29.76,NW,315,2.2,2.2,66,0.00,,---,0.00,VWS V14.01,2013-03-01 08:40:00,
2013-03-01 03:41:00,48.4,37.2,29.76,WNW,292,2.2,2.7,65,0.00,,---,0.00,VWS V14.01,2013-03-01 08:41:00,
2013-03-01 03:45:00,46.4,35.7,29.76,NW,315,1.1,2.9,66,0.00,,---,0.00,VWS V14.01,2013-03-01 08:45:00,
2013-03-01 03:46:00,48.2,36.6,29.76,WNW,292,1.3,2.5,64,0.00,,---,0.00,VWS V14.01,2013-03-01 08:46:00,
2013-03-01 03:50:00,46.4,35.7,29.76,NNW,338,2.0,3.1,66,0.00,,---,0.00,VWS V14.01,2013-03-01 08:50:00,
2013-03-01 03:51:00,48.0,36.4,29.76,WNW,292,0.9,2.7,64,0.00,,---,0.00,VWS V14.01,2013-03-01 08:51:00,
2013-03-01 03:55:00,46.8,35.6,29.76,West,270,1.3,4.0,65,0.00,,---,0.00,VWS V14.01,2013-03-01 08:55:00,
2013-03-01 03:56:00,47.8,36.3,29.76,WNW,292,0.0,3.1,64,0.00,,---,0.00,VWS V14.01,2013-03-01 08:56:00,
2013-03-01 04:00:00,46.8,35.2,29.80,NW,315,2.2,4.0,64,0.00,,---,0.00,VWS V14.01,2013-03-01 09:00:00,
2013-03-01 04:01:00,47.5,35.9,29.76,WNW,292,0.0,0.9,64,0.00,,---,0.00,VWS V14.01,2013-03-01 09:01:00,
2013-03-01 04:05:00,46.9,35.4,29.80,NNW,338,1.1,3.6,64,0.00,,---,0.00,VWS V14.01,2013-03-01 09:05:00,
2013-03-01 04:06:00,47.1,35.6,29.76,WNW,292,0.0,2.0,64,0.00,,---,0.00,VWS V14.01,2013-03-01 09:06:00,
2013-03-01 04:10:00,47.1,35.2,29.80,WNW,292,2.2,3.1,63,0.00,,---,0.00,VWS V14.01,2013-03-01 09:10:00,
2013-03-01 04:11:00,47.1,35.6,29.76,NW,315,0.0,3.6,64,0.00,,---,0.00,VWS V14.01,2013-03-01 09:11:00,
2013-03-01 04:15:00,47.3,35.4,29.80,WNW,292,2.0,2.7,63,0.00,,---,0.00,VWS V14.01,2013-03-01 09:15:00,
2013-03-01 04:16:00,46.8,35.2,29.76,NW,315,0.0,0.0,64,0.00,,---,0.00,VWS V14.01,2013-03-01 09:16:00,
2013-03-01 04:20:00,47.3,35.0,29.80,NNW,338,2.0,3.1,62,0.00,,---,0.00,VWS V14.01,2013-03-01 09:20:00,
2013-03-01 04:21:00,46.6,35.1,29.76,WNW,292,0.0,0.0,64,0.00,,---,0.00,VWS V14.01,2013-03-01 09:21:00,
2013-03-01 04:25:00,47.3,34.5,29.80,NW,315,1.6,3.4,61,0.00,,---,0.00,VWS V14.01,2013-03-01 09:25:00,
2013-03-01 04:26:00,46.4,35.3,29.76,WNW,292,0.0,0.0,65,0.00,,---,0.00,VWS V14.01,2013-03-01 09:26:00,
2013-03-01 04:30:00,47.3,34.5,29.80,WNW,292,0.0,2.9,61,0.00,,---,0.00,VWS V14.01,2013-03-01 09:30:00,
2013-03-01 04:31:00,46.2,35.1,29.76,NW,315,0.0,0.0,65,0.00,,---,0.00,VWS V14.01,2013-03-01 09:31:00,
2013-03-01 04:35:00,47.1,34.0,29.80,NW,315,0.0,2.5,60,0.00,,---,0.00,VWS V14.01,2013-03-01 09:35:00,
2013-03-01 04:36:00,46.2,35.5,29.76,WNW,292,0.0,2.5,66,0.00,,---,0.00,VWS V14.01,2013-03-01 09:36:00,
2013-03-01 04:40:00,46.8,33.6,29.80,NNW,338,0.0,2.0,60,0.00,,---,0.00,VWS V14.01,2013-03-01 09:40:00,
2013-03-01 04:41:00,46.4,35.7,29.76,NW,315,2.2,2.2,66,0.00,,---,0.00,VWS V14.01,2013-03-01 09:41:00,
2013-03-01 04:45:00,46.6,33.5,29.80,WNW,292,0.0,0.0,60,0.00,,---,0.00,VWS V14.01,2013-03-01 09:45:00,
2013-03-01 04:46:00,46.4,35.7,29.76,NW,315,1.1,2.9,66,0.00,,---,0.00,VWS V14.01,2013-03-01 09:46:00,
2013-03-01 04:50:00,46.2,33.1,29.80,NW,315,0.0,1.1,60,0.00,,---,0.00,VWS V14.01,2013-03-01 09:50:00,
2013-03-01 04:51:00,46.4,35.7,29.76,NNW,338,2.0,3.1,66,0.00,,---,0.00,VWS V14.01,2013-03-01 09:51:00,
2013-03-01 04:55:00,46.0,33.0,29.80,NNW,338,0.0,1.6,60,0.00,,---,0.00,VWS V14.01,2013-03-01 09:55:00,
2013-03-01 04:56:00,46.8,35.6,29.76,West,270,1.3,4.0,65,0.00,,---,0.00,VWS V14.01,2013-03-01 09:56:00,
2013-03-01 05:00:00,45.7,32.6,29.80,WNW,292,0.0,0.0,60,0.00,,---,0.00,VWS V14.01,2013-03-01 10:00:00,
2013-03-01 05:01:00,46.8,35.2,29.79,NW,315,2.2,4.0,64,0.00,,---,0.00,VWS V14.01,2013-03-01 10:01:00,
2013-03-01 05:05:00,45.1,32.1,29.80,WNW,292,0.0,0.0,60,0.00,,---,0.00,VWS V14.01,2013-03-01 10:05:00,
2013-03-01 05:06:00,46.9,35.4,29.79,NNW,338,1.1,3.6,64,0.00,,---,0.00,VWS V14.01,2013-03-01 10:06:00,
2013-03-01 05:10:00,45.1,32.5,29.80,West,270,0.0,0.0,61,0.00,,---,0.00,VWS V14.01,2013-03-01 10:10:00,
2013-03-01 05:11:00,47.1,35.2,29.79,WNW,292,2.2,3.1,63,0.00,,---,0.00,VWS V14.01,2013-03-01 10:11:00,
2013-03-01 05:15:00,45.0,32.3,29.80,West,270,0.0,0.0,61,0.00,,---,0.00,VWS V14.01,2013-03-01 10:15:00,
2013-03-01 05:16:00,47.3,35.4,29.79,WNW,292,2.0,2.7,63,0.00,,---,0.00,VWS V14.01,2013-03-01 10:16:00,
2013-03-01 05:20:00,44.6,32.4,29.80,West,270,0.0,0.0,62,0.00,,---,0.00,VWS V14.01,2013-03-01 10:20:00,
2013-03-01 05:21:00,47.3,35.0,29.79,NNW,338,3.4,3.4,62,0.00,,---,0.00,VWS V14.01,2013-03-01 10:21:00,
2013-03-01 05:25:00,44.2,32.1,29.80,West,270,0.0,0.0,62,0.00,,---,0.00,VWS V14.01,2013-03-01 10:25:00,
2013-03-01 05:26:00,47.3,34.5,29.79,NW,315,1.6,2.5,61,0.00,,---,0.00,VWS V14.01,2013-03-01 10:26:00,
2013-03-01 05:30:00,44.1,32.3,29.80,WNW,292,0.0,0.0,63,0.00,,---,0.00,VWS V14.01,2013-03-01 10:30:00,
2013-03-01 05:31:00,47.3,34.5,29.79,NW,315,0.0,0.0,61,0.00,,---,0.00,VWS V14.01,2013-03-01 10:31:00,
2013-03-01 05:35:00,43.9,32.1,29.80,WNW,292,0.0,0.0,63,0.00,,---,0.00,VWS V14.01,2013-03-01 10:35:00,
2013-03-01 05:36:00,47.1,34.0,29.79,NW,315,1.1,1.1,60,0.00,,---,0.00,VWS V14.01,2013-03-01 10:36:00,
2013-03-01 05:40:00,43.9,32.1,29.80,WNW,292,0.0,0.0,63,0.00,,---,0.00,VWS V14.01,2013-03-01 10:40:00,
2013-03-01 05:41:00,46.8,33.6,29.79,NW,315,0.0,0.0,60,0.00,,---,0.00,VWS V14.01,2013-03-01 10:41:00,
2013-03-01 05:45:00,43.5,32.2,29.82,West,270,0.0,0.0,64,0.00,,---,0.00,VWS V14.01,2013-03-01 10:45:00,
2013-03-01 05:47:00,46.4,33.3,29.79,WNW,292,0.0,0.0,60,0.00,,---,0.00,VWS V14.01,2013-03-01 10:47:00,
2013-03-01 05:50:00,43.2,31.8,29.82,West,270,0.0,0.0,64,0.00,,---,0.00,VWS V14.01,2013-03-01 10:50:00,
2013-03-01 05:52:00,46.2,33.1,29.79,NW,315,0.0,0.0,60,0.00,,---,0.00,VWS V14.01,2013-03-01 10:52:00,
2013-03-01 05:55:00,42.8,31.5,29.82,West,270,0.0,0.0,64,0.00,,---,0.00,VWS V14.01,2013-03-01 10:55:00,
2013-03-01 05:57:00,46.0,33.0,29.79,NNW,338,0.0,0.0,60,0.00,,---,0.00,VWS V14.01,2013-03-01 10:57:00,
2013-03-01 06:00:00,42.4,31.9,29.80,West,270,0.0,0.0,66,0.00,,---,0.00,VWS V14.01,2013-03-01 11:00:00,
2013-03-01 06:02:00,45.5,32.4,29.79,WNW,292,0.0,0.0,60,0.00,,---,0.00,VWS V14.01,2013-03-01 11:02:00,
2013-03-01 06:05:00,42.3,32.1,29.80,West,270,0.0,0.0,67,0.00,,---,0.00,VWS V14.01,2013-03-01 11:05:00,
2013-03-01 06:07:00,45.1,32.1,29.79,WNW,292,0.0,0.0,60,0.00,,---,0.00,VWS V14.01,2013-03-01 11:07:00,
2013-03-01 06:10:00,42.3,32.5,29.80,West,270,0.0,0.0,68,0.00,,---,0.00,VWS V14.01,2013-03-01 11:10:00,
2013-03-01 06:12:00,45.1,32.5,29.79,West,270,0.0,0.0,61,0.00,,---,0.00,VWS V14.01,2013-03-01 11:12:00,
2013-03-01 06:15:00,42.3,32.8,29.80,SSE,158,0.0,0.0,69,0.00,,---,0.00,VWS V14.01,2013-03-01 11:15:00,
2013-03-01 06:17:00,45.0,32.3,29.79,West,270,0.0,0.0,61,0.00,,---,0.00,VWS V14.01,2013-03-01 11:17:00,
2013-03-01 06:20:00,42.6,33.5,29.80,SSE,158,0.0,0.0,70,0.00,,---,0.00,VWS V14.01,2013-03-01 11:20:00,
2013-03-01 06:22:00,44.6,32.4,29.79,West,270,0.0,0.0,62,0.00,,---,0.00,VWS V14.01,2013-03-01 11:22:00,
2013-03-01 06:25:00,43.7,34.6,29.80,South,180,0.0,0.0,70,0.00,,---,0.00,VWS V14.01,2013-03-01 11:25:00,
2013-03-01 06:27:00,44.2,32.1,29.79,WNW,292,0.0,0.0,62,0.00,,---,0.00,VWS V14.01,2013-03-01 11:27:00,
2013-03-01 06:30:00,44.8,36.0,29.82,South,180,0.0,0.0,71,0.00,,---,0.00,VWS V14.01,2013-03-01 11:30:00,
2013-03-01 06:32:00,44.1,32.3,29.79,WNW,292,0.0,0.0,63,0.00,,---,0.00,VWS V14.01,2013-03-01 11:32:00,
2013-03-01 06:35:00,46.4,38.2,29.82,SSW,202,0.0,0.0,73,0.00,,---,0.00,VWS V14.01,2013-03-01 11:35:00,
2013-03-01 06:37:00,43.9,32.1,29.79,WNW,292,0.0,0.0,63,0.00,,---,0.00,VWS V14.01,2013-03-01 11:37:00,
2013-03-01 06:40:00,47.3,39.1,29.82,WSW,248,0.0,0.0,73,0.00,,---,0.00,VWS V14.01,2013-03-01 11:40:00,
2013-03-01 06:42:00,43.9,32.1,29.79,West,270,0.0,0.0,63,0.00,,---,0.00,VWS V14.01,2013-03-01 11:42:00,
2013-03-01 06:45:00,49.6,41.0,29.82,NNW,338,0.0,0.0,72,0.00,,---,0.00,VWS V14.01,2013-03-01 11:45:00,
2013-03-01 06:47:00,43.5,32.2,29.82,West,270,0.0,0.0,64,0.00,,---,0.00,VWS V14.01,2013-03-01 11:47:00,
2013-03-01 06:50:00,52.0,42.1,29.82,WNW,292,0.0,0.0,69,0.00,,---,0.00,VWS V14.01,2013-03-01 11:50:00,
2013-03-01 06:52:00,43.2,31.8,29.82,West,270,0.0,0.0,64,0.00,,---,0.00,VWS V14.01,2013-03-01 11:52:00,
2013-03-01 06:55:00,51.3,39.5,29.82,West,270,0.0,0.0,64,0.00,,---,0.00,VWS V14.01,2013-03-01 11:55:00,
2013-03-01 07:00:00,51.4,38.5,29.82,WNW,292,0.0,0.0,61,0.00,,---,0.00,VWS V14.01,2013-03-01 12:00:00,
2013-03-01 07:01:00,42.4,31.9,29.79,West,270,0.0,0.0,66,0.00,,---,0.00,VWS V14.01,2013-03-01 12:01:00,
2013-03-01 07:05:00,51.4,37.6,29.82,West,270,0.0,0.0,59,0.00,,---,0.00,VWS V14.01,2013-03-01 12:05:00,
2013-03-01 07:06:00,42.3,32.1,29.79,West,270,0.0,0.0,67,0.00,,---,0.00,VWS V14.01,2013-03-01 12:06:00,
2013-03-01 07:10:00,52.7,37.5,29.82,NW,315,1.1,2.5,56,0.00,,---,0.00,VWS V14.01,2013-03-01 12:10:00,
2013-03-01 07:11:00,42.3,32.5,29.79,West,270,0.0,0.0,68,0.00,,---,0.00,VWS V14.01,2013-03-01 12:11:00,
2013-03-01 07:15:00,55.2,39.8,29.82,West,270,0.0,1.1,56,0.00,,---,0.00,VWS V14.01,2013-03-01 12:15:00,
2013-03-01 07:16:00,42.3,32.8,29.79,SSE,158,0.0,0.0,69,0.00,,---,0.00,VWS V14.01,2013-03-01 12:16:00,
2013-03-01 07:20:00,54.9,38.5,29.82,WNW,292,0.0,0.0,54,0.00,,---,0.00,VWS V14.01,2013-03-01 12:20:00,
2013-03-01 07:21:00,42.6,33.5,29.79,SSE,158,0.0,0.0,70,0.00,,---,0.00,VWS V14.01,2013-03-01 12:21:00,
2013-03-01 07:25:00,54.1,35.9,29.82,NW,315,2.0,2.7,50,0.00,,---,0.00,VWS V14.01,2013-03-01 12:25:00,
2013-03-01 07:26:00,43.7,34.6,29.79,South,180,0.0,0.0,70,0.00,,---,0.00,VWS V14.01,2013-03-01 12:26:00,
2013-03-01 07:30:00,54.0,35.2,29.85,WNW,292,0.0,2.0,49,0.00,,---,0.00,VWS V14.01,2013-03-01 12:30:00,
2013-03-01 07:31:00,44.8,36.0,29.82,South,180,0.0,0.0,71,0.00,,---,0.00,VWS V14.01,2013-03-01 12:31:00,
2013-03-01 07:35:00,54.0,34.7,29.85,ESE,112,0.9,2.7,48,0.00,,---,0.00,VWS V14.01,2013-03-01 12:35:00,
2013-03-01 07:36:00,46.4,38.2,29.82,SSW,202,0.0,0.0,73,0.00,,---,0.00,VWS V14.01,2013-03-01 12:36:00,
2013-03-01 07:40:00,54.3,35.1,29.85,NW,315,0.0,2.2,48,0.00,,---,0.00,VWS V14.01,2013-03-01 12:40:00,
2013-03-01 07:41:00,47.3,39.1,29.82,WSW,248,0.0,0.0,73,0.00,,---,0.00,VWS V14.01,2013-03-01 12:41:00,
2013-03-01 07:45:00,54.1,33.8,29.85,West,270,0.0,0.0,46,0.00,,---,0.00,VWS V14.01,2013-03-01 12:45:00,
2013-03-01 07:46:00,49.6,41.0,29.82,NNW,338,0.0,0.0,72,0.00,,---,0.00,VWS V14.01,2013-03-01 12:46:00,
2013-03-01 07:50:00,54.5,34.2,29.85,WNW,292,0.0,0.0,46,0.00,,---,0.00,VWS V14.01,2013-03-01 12:50:00,
2013-03-01 07:51:00,52.0,42.1,29.82,WNW,292,0.0,0.0,69,0.00,,---,0.00,VWS V14.01,2013-03-01 12:51:00,
2013-03-01 07:55:00,55.0,34.1,29.85,South,180,0.0,0.0,45,0.00,,---,0.00,VWS V14.01,2013-03-01 12:55:00,
2013-03-01 07:56:00,51.3,39.5,29.82,West,270,0.0,0.0,64,0.00,,---,0.00,VWS V14.01,2013-03-01 12:56:00,
2013-03-01 08:00:00,54.9,32.8,29.85,West,270,0.9,4.3,43,0.00,,---,0.00,VWS V14.01,2013-03-01 13:00:00,
2013-03-01 08:01:00,51.4,38.5,29.82,WNW,292,0.0,0.0,61,0.00,,---,0.00,VWS V14.01,2013-03-01 13:01:00,
2013-03-01 08:05:00,55.2,32.5,29.85,NW,315,2.5,3.8,42,0.00,,---,0.00,VWS V14.01,2013-03-01 13:05:00,
2013-03-01 08:06:00,51.4,37.6,29.82,West,270,0.0,0.0,59,0.00,,---,0.00,VWS V14.01,2013-03-01 13:06:00,
2013-03-01 08:10:00,55.0,31.8,29.85,NNW,338,2.9,3.6,41,0.00,,---,0.00,VWS V14.01,2013-03-01 13:10:00,
2013-03-01 08:11:00,52.7,37.5,29.82,NW,315,1.1,2.5,56,0.00,,---,0.00,VWS V14.01,2013-03-01 13:11:00,
2013-03-01 08:15:00,54.7,30.9,29.82,NW,315,0.0,3.8,40,0.00,,---,0.00,VWS V14.01,2013-03-01 13:15:00,
2013-03-01 08:16:00,55.2,39.8,29.82,West,270,0.0,1.1,56,0.00,,---,0.00,VWS V14.01,2013-03-01 13:16:00,
2013-03-01 08:20:00,54.7,30.9,29.82,NNW,338,2.2,4.9,40,0.00,,---,0.00,VWS V14.01,2013-03-01 13:20:00,
2013-03-01 08:21:00,54.9,38.5,29.82,WNW,292,0.0,0.0,54,0.00,,---,0.00,VWS V14.01,2013-03-01 13:21:00,
2013-03-01 08:25:00,55.6,31.7,29.82,SSE,158,0.0,2.7,40,0.00,,---,0.00,VWS V14.01,2013-03-01 13:25:00,
2013-03-01 08:26:00,54.1,35.9,29.82,NW,315,2.0,2.7,50,0.00,,---,0.00,VWS V14.01,2013-03-01 13:26:00,
2013-03-01 08:30:00,55.8,31.8,29.82,NW,315,2.7,3.8,40,0.00,,---,0.00,VWS V14.01,2013-03-01 13:30:00,
2013-03-01 08:31:00,54.0,35.2,29.85,WNW,292,0.0,2.0,49,0.00,,---,0.00,VWS V14.01,2013-03-01 13:31:00,
2013-03-01 08:35:00,55.2,31.3,29.82,WNW,292,2.7,4.3,40,0.00,,---,0.00,VWS V14.01,2013-03-01 13:35:00,
2013-03-01 08:36:00,54.0,34.7,29.85,ESE,112,0.9,2.7,48,0.00,,---,0.00,VWS V14.01,2013-03-01 13:36:00,
2013-03-01 08:40:00,55.9,32.0,29.82,NW,315,2.7,2.7,40,0.00,,---,0.00,VWS V14.01,2013-03-01 13:40:00,
2013-03-01 08:41:00,54.3,35.1,29.85,NW,315,0.0,2.2,48,0.00,,---,0.00,VWS V14.01,2013-03-01 13:41:00,
2013-03-01 08:45:00,58.8,33.9,29.85,WSW,248,2.7,2.7,39,0.00,,---,0.00,VWS V14.01,2013-03-01 13:45:00,
2013-03-01 08:46:00,54.1,33.8,29.85,West,270,0.0,0.0,46,0.00,,---,0.00,VWS V14.01,2013-03-01 13:46:00,
2013-03-01 08:50:00,62.1,36.2,29.85,NW,315,1.1,2.7,38,0.00,,---,0.00,VWS V14.01,2013-03-01 13:50:00,
2013-03-01 08:51:00,54.5,34.2,29.85,WNW,292,0.0,0.0,46,0.00,,---,0.00,VWS V14.01,2013-03-01 13:51:00,
2013-03-01 08:55:00,63.5,36.1,29.85,WNW,292,1.3,3.6,36,0.00,,---,0.00,VWS V14.01,2013-03-01 13:55:00,
2013-03-01 08:56:00,55.0,34.1,29.85,South,180,0.0,0.0,45,0.00,,---,0.00,VWS V14.01,2013-03-01 13:56:00,
2013-03-01 09:00:00,64.2,36.0,29.82,SW,225,2.9,3.8,35,0.00,,---,0.00,VWS V14.01,2013-03-01 14:00:00,
2013-03-01 09:01:00,54.9,32.8,29.85,West,270,0.9,4.3,43,0.00,,---,0.00,VWS V14.01,2013-03-01 14:01:00,
2013-03-01 09:05:00,63.7,34.8,29.82,SSW,202,0.0,4.3,34,0.00,,---,0.00,VWS V14.01,2013-03-01 14:05:00,
2013-03-01 09:06:00,55.2,32.5,29.85,NW,315,2.5,3.8,42,0.00,,---,0.00,VWS V14.01,2013-03-01 14:06:00,
2013-03-01 09:10:00,64.8,34.2,29.82,West,270,2.7,4.0,32,0.00,,---,0.00,VWS V14.01,2013-03-01 14:10:00,
2013-03-01 09:11:00,55.0,31.8,29.85,NNW,338,2.9,3.6,41,0.00,,---,0.00,VWS V14.01,2013-03-01 14:11:00,
2013-03-01 09:15:00,65.8,36.0,29.82,West,270,2.0,5.4,33,0.00,,---,0.00,VWS V14.01,2013-03-01 14:15:00,
2013-03-01 09:16:00,54.7,30.9,29.82,NW,315,0.0,3.8,40,0.00,,---,0.00,VWS V14.01,2013-03-01 14:16:00,
2013-03-01 09:20:00,65.5,34.1,29.82,WNW,292,3.6,4.3,31,0.00,,---,0.00,VWS V14.01,2013-03-01 14:20:00,
2013-03-01 09:21:00,54.7,30.9,29.82,NNW,338,2.2,4.9,40,0.00,,---,0.00,VWS V14.01,2013-03-01 14:21:00,
2013-03-01 09:25:00,63.0,32.7,29.82,West,270,0.0,3.6,32,0.00,,---,0.00,VWS V14.01,2013-03-01 14:25:00,
2013-03-01 09:26:00,55.6,31.7,29.82,SSE,158,0.0,2.7,40,0.00,,---,0.00,VWS V14.01,2013-03-01 14:26:00,
2013-03-01 09:30:00,61.7,31.6,29.82,WNW,292,2.5,2.9,32,0.00,,---,0.00,VWS V14.01,2013-03-01 14:30:00,
2013-03-01 09:31:00,55.8,31.8,29.82,NW,315,2.7,3.8,40,0.00,,---,0.00,VWS V14.01,2013-03-01 14:31:00,
2013-03-01 09:35:00,61.3,32.0,29.82,WNW,292,1.3,3.8,33,0.00,,---,0.00,VWS V14.01,2013-03-01 14:35:00,
2013-03-01 09:36:00,55.2,31.3,29.82,WNW,292,2.7,4.3,40,0.00,,---,0.00,VWS V14.01,2013-03-01 14:36:00,
2013-03-01 09:40:00,61.3,32.0,29.82,SE,135,0.0,2.9,33,0.00,,---,0.00,VWS V14.01,2013-03-01 14:40:00,
2013-03-01 09:41:00,55.9,32.0,29.82,NW,315,2.7,2.7,40,0.00,,---,0.00,VWS V14.01,2013-03-01 14:41:00,
2013-03-01 09:45:00,61.7,32.3,29.82,SW,225,3.1,4.0,33,0.00,,---,0.00,VWS V14.01,2013-03-01 14:45:00,
2013-03-01 09:46:00,58.8,33.9,29.85,WSW,248,2.7,2.7,39,0.00,,---,0.00,VWS V14.01,2013-03-01 14:46:00,
2013-03-01 09:50:00,61.9,32.5,29.82,West,270,2.7,3.4,33,0.00,,---,0.00,VWS V14.01,2013-03-01 14:50:00,
2013-03-01 09:51:00,62.1,36.2,29.85,NW,315,1.1,2.7,38,0.00,,---,0.00,VWS V14.01,2013-03-01 14:51:00,
2013-03-01 09:55:00,61.2,31.9,29.82,West,270,2.2,4.3,33,0.00,,---,0.00,VWS V14.01,2013-03-01 14:55:00,
2013-03-01 09:56:00,63.5,36.1,29.85,WNW,292,1.3,3.6,36,0.00,,---,0.00,VWS V14.01,2013-03-01 14:56:00,
2013-03-01 10:00:00,61.0,30.2,29.82,West,270,2.7,4.9,31,0.00,,---,0.00,VWS V14.01,2013-03-01 15:00:00,
2013-03-01 10:01:00,64.2,36.0,29.82,SW,225,2.9,3.8,35,0.00,,---,0.00,VWS V14.01,2013-03-01 15:01:00,
2013-03-01 10:05:00,62.4,31.4,29.82,WNW,292,1.3,4.9,31,0.00,,---,0.00,VWS V14.01,2013-03-01 15:05:00,
2013-03-01 10:06:00,63.7,34.8,29.82,SSW,202,0.0,4.3,34,0.00,,---,0.00,VWS V14.01,2013-03-01 15:06:00,
2013-03-01 10:10:00,66.9,35.3,29.82,West,270,0.0,2.7,31,0.00,,---,0.00,VWS V14.01,2013-03-01 15:10:00,
2013-03-01 10:11:00,64.8,34.2,29.82,West,270,2.7,4.0,32,0.00,,---,0.00,VWS V14.01,2013-03-01 15:11:00,
2013-03-01 10:15:00,70.2,37.3,29.85,NW,315,0.9,3.4,30,0.00,,---,0.00,VWS V14.01,2013-03-01 15:15:00,
2013-03-01 10:16:00,65.8,36.0,29.82,West,270,2.0,5.4,33,0.00,,---,0.00,VWS V14.01,2013-03-01 15:16:00,
2013-03-01 10:20:00,70.0,35.4,29.85,NNE,22,2.2,3.6,28,0.00,,---,0.00,VWS V14.01,2013-03-01 15:20:00,
2013-03-01 10:21:00,65.5,34.1,29.82,WNW,292,3.6,4.3,31,0.00,,---,0.00,VWS V14.01,2013-03-01 15:21:00,
2013-03-01 10:25:00,70.2,34.7,29.85,North,0,0.0,4.3,27,0.00,,---,0.00,VWS V14.01,2013-03-01 15:25:00,
2013-03-01 10:26:00,63.0,32.7,29.82,West,270,0.0,3.6,32,0.00,,---,0.00,VWS V14.01,2013-03-01 15:26:00,
2013-03-01 10:30:00,68.9,32.6,29.82,WNW,292,2.9,5.8,26,0.00,,---,0.00,VWS V14.01,2013-03-01 15:30:00,
2013-03-01 10:31:00,61.7,31.6,29.82,WNW,292,2.5,2.9,32,0.00,,---,0.00,VWS V14.01,2013-03-01 15:31:00,
2013-03-01 10:35:00,69.8,32.4,29.82,NW,315,2.0,3.8,25,0.00,,---,0.00,VWS V14.01,2013-03-01 15:35:00,
2013-03-01 10:36:00,61.3,32.0,29.82,WNW,292,1.3,3.8,33,0.00,,---,0.00,VWS V14.01,2013-03-01 15:36:00,
2013-03-01 10:40:00,71.1,33.5,29.82,NE,45,4.0,4.3,25,0.00,,---,0.00,VWS V14.01,2013-03-01 15:40:00,
2013-03-01 10:41:00,61.3,32.0,29.82,SE,135,0.0,2.9,33,0.00,,---,0.00,VWS V14.01,2013-03-01 15:41:00,
2013-03-01 10:45:00,70.5,32.0,29.82,WNW,292,1.3,5.8,24,0.00,,---,0.00,VWS V14.01,2013-03-01 15:45:00,
2013-03-01 10:46:00,61.7,32.3,29.82,SW,225,3.1,4.0,33,0.00,,---,0.00,VWS V14.01,2013-03-01 15:46:00,
2013-03-01 10:50:00,71.1,32.5,29.82,East,90,1.6,4.0,24,0.00,,---,0.00,VWS V14.01,2013-03-01 15:50:00,
2013-03-01 10:51:00,61.9,32.5,29.82,West,270,2.7,3.4,33,0.00,,---,0.00,VWS V14.01,2013-03-01 15:51:00,
2013-03-01 10:55:00,72.0,33.2,29.82,West,270,0.9,3.6,24,0.00,,---,0.00,VWS V14.01,2013-03-01 15:55:00,
2013-03-01 10:56:00,61.2,31.9,29.82,West,270,2.2,4.3,33,0.00,,---,0.00,VWS V14.01,2013-03-01 15:56:00,
2013-03-01 11:00:00,69.4,31.1,29.82,West,270,5.4,5.4,24,0.00,,---,0.00,VWS V14.01,2013-03-01 16:00:00,
2013-03-01 11:01:00,61.0,30.2,29.82,West,270,2.7,4.9,31,0.00,,---,0.00,VWS V14.01,2013-03-01 16:01:00,
2013-03-01 11:05:00,66.4,28.5,29.82,SW,225,2.5,7.2,24,0.00,,---,0.00,VWS V14.01,2013-03-01 16:05:00,
2013-03-01 11:07:00,63.7,32.5,29.82,North,0,0.0,2.7,31,0.00,,---,0.00,VWS V14.01,2013-03-01 16:07:00,
2013-03-01 11:10:00,68.9,30.6,29.82,WSW,248,0.0,4.9,24,0.00,,---,0.00,VWS V14.01,2013-03-01 16:10:00,
2013-03-01 11:12:00,67.8,36.1,29.85,West,270,0.0,3.4,31,0.00,,---,0.00,VWS V14.01,2013-03-01 16:12:00,
2013-03-01 11:15:00,71.8,32.0,29.82,NNE,22,3.6,4.0,23,0.00,,---,0.00,VWS V14.01,2013-03-01 16:15:00,
2013-03-01 11:18:00,70.5,37.6,29.85,WSW,248,3.6,3.6,30,0.00,,---,0.00,VWS V14.01,2013-03-01 16:18:00,
2013-03-01 11:20:00,70.5,31.0,29.82,North,0,3.6,8.1,23,0.00,,---,0.00,VWS V14.01,2013-03-01 16:20:00,
2013-03-01 11:23:00,70.0,35.4,29.85,NNW,338,1.1,3.1,28,0.00,,---,0.00,VWS V14.01,2013-03-01 16:23:00,
2013-03-01 11:25:00,72.1,32.3,29.82,NW,315,0.0,4.0,23,0.00,,---,0.00,VWS V14.01,2013-03-01 16:25:00,
2013-03-01 11:28:00,70.3,34.8,29.82,ENE,68,2.0,4.5,27,0.00,,---,0.00,VWS V14.01,2013-03-01 16:28:00,
2013-03-01 11:30:00,73.0,33.1,29.80,WNW,292,2.5,3.1,23,0.00,,---,0.00,VWS V14.01,2013-03-01 16:30:00,
2013-03-01 11:33:00,68.9,32.6,29.82,North,0,1.3,2.9,26,0.00,,---,0.00,VWS V14.01,2013-03-01 16:33:00,
2013-03-01 11:35:00,72.9,31.8,29.80,West,270,1.3,4.7,22,0.00,,---,0.00,VWS V14.01,2013-03-01 16:35:00,
2013-03-01 11:38:00,70.3,32.9,29.82,NNE,22,2.5,3.1,25,0.00,,---,0.00,VWS V14.01,2013-03-01 16:38:00,
2013-03-01 11:40:00,72.5,31.5,29.80,NW,315,2.0,3.8,22,0.00,,---,0.00,VWS V14.01,2013-03-01 16:40:00,
2013-03-01 11:43:00,70.5,33.0,29.82,WNW,292,0.0,4.0,25,0.00,,---,0.00,VWS V14.01,2013-03-01 16:43:00,
2013-03-01 11:45:00,73.0,32.0,29.80,West,270,2.9,4.7,22,0.00,,---,0.00,VWS V14.01,2013-03-01 16:45:00,
2013-03-01 11:48:00,71.1,32.5,29.82,WNW,292,2.7,4.0,24,0.00,,---,0.00,VWS V14.01,2013-03-01 16:48:00,
2013-03-01 11:50:00,72.1,31.2,29.80,WSW,248,2.5,5.6,22,0.00,,---,0.00,VWS V14.01,2013-03-01 16:50:00,
2013-03-01 11:53:00,71.6,32.9,29.82,East,90,1.6,3.4,24,0.00,,---,0.00,VWS V14.01,2013-03-01 16:53:00,
2013-03-01 11:55:00,72.9,31.8,29.80,NNW,338,2.5,4.3,22,0.00,,---,0.00,VWS V14.01,2013-03-01 16:55:00,
2013-03-01 11:58:00,72.0,33.2,29.82,West,270,1.3,2.5,24,0.00,,---,0.00,VWS V14.01,2013-03-01 16:58:00,
2013-03-01 12:00:00,72.5,31.5,29.80,North,0,2.9,4.9,22,0.00,,---,0.00,VWS V14.01,2013-03-01 17:00:00,
2013-03-01 12:03:00,68.4,29.1,29.82,West,270,7.2,7.2,23,0.00,,---,0.00,VWS V14.01,2013-03-01 17:03:00,
2013-03-01 12:05:00,72.7,30.5,29.80,WNW,292,4.0,6.9,21,0.00,,---,0.00,VWS V14.01,2013-03-01 17:05:00,
2013-03-01 12:08:00,67.3,29.3,29.82,WSW,248,0.0,2.5,24,0.00,,---,0.00,VWS V14.01,2013-03-01 17:08:00,
2013-03-01 12:10:00,71.8,29.8,29.80,North,0,2.2,6.7,21,0.00,,---,0.00,VWS V14.01,2013-03-01 17:10:00,
2013-03-01 12:13:00,69.3,31.0,29.82,South,180,0.0,2.7,24,0.00,,---,0.00,VWS V14.01,2013-03-01 17:13:00,
2013-03-01 12:15:00,70.7,30.0,29.80,SW,225,2.7,6.5,22,0.00,,---,0.00,VWS V14.01,2013-03-01 17:15:00,
2013-03-01 12:18:00,71.8,32.0,29.82,NNW,338,1.6,3.8,23,0.00,,---,0.00,VWS V14.01,2013-03-01 17:18:00,
2013-03-01 12:20:00,69.1,28.7,29.80,WSW,248,3.8,7.8,22,0.00,,---,0.00,VWS V14.01,2013-03-01 17:20:00,
2013-03-01 12:23:00,70.5,31.0,29.82,WNW,292,4.0,4.0,23,0.00,,---,0.00,VWS V14.01,2013-03-01 17:23:00,
2013-03-01 12:25:00,69.4,29.0,29.80,SW,225,2.5,6.3,22,0.00,,---,0.00,VWS V14.01,2013-03-01 17:25:00,
2013-03-01 12:28:00,72.7,32.8,29.79,NW,315,2.7,3.1,23,0.00,,---,0.00,VWS V14.01,2013-03-01 17:28:00,
2013-03-01 12:30:00,70.3,29.7,29.76,NNW,338,6.5,6.5,22,0.00,,---,0.00,VWS V14.01,2013-03-01 17:30:00,
2013-03-01 12:33:00,73.2,33.2,29.79,North,0,2.5,3.4,23,0.00,,---,0.00,VWS V14.01,2013-03-01 17:33:00,
2013-03-01 12:35:00,68.5,28.2,29.76,West,270,2.9,8.7,22,0.00,,---,0.00,VWS V14.01,2013-03-01 17:35:00,
2013-03-01 12:38:00,72.1,31.2,29.79,WNW,292,3.8,3.8,22,0.00,,---,0.00,VWS V14.01,2013-03-01 17:38:00,
2013-03-01 12:40:00,68.0,27.8,29.76,West,270,2.2,4.9,22,0.00,,---,0.00,VWS V14.01,2013-03-01 17:40:00,
2013-03-01 12:43:00,73.2,32.1,29.79,NNW,338,1.1,4.7,22,0.00,,---,0.00,VWS V14.01,2013-03-01 17:43:00,
2013-03-01 12:45:00,67.1,28.1,29.76,NNW,338,0.0,5.4,23,0.00,,---,0.00,VWS V14.01,2013-03-01 17:45:00,
2013-03-01 12:48:00,73.0,32.0,29.79,WSW,248,2.9,5.6,22,0.00,,---,0.00,VWS V14.01,2013-03-01 17:48:00,
2013-03-01 12:50:00,67.1,28.1,29.76,NW,315,2.2,4.0,23,0.00,,---,0.00,VWS V14.01,2013-03-01 17:50:00,
2013-03-01 12:53:00,72.5,31.5,29.79,WNW,292,0.9,2.7,22,0.00,,---,0.00,VWS V14.01,2013-03-01 17:53:00,
2013-03-01 12:55:00,65.8,27.0,29.76,West,270,3.6,6.9,23,0.00,,---,0.00,VWS V14.01,2013-03-01 17:55:00,
2013-03-01 12:58:00,73.0,32.0,29.79,WNW,292,1.6,3.4,22,0.00,,---,0.00,VWS V14.01,2013-03-01 17:58:00,
2013-03-01 13:00:00,65.1,26.4,29.76,NNE,22,2.9,4.9,23,0.00,,---,0.00,VWS V14.01,2013-03-01 18:00:00,
2013-03-01 13:03:00,71.6,29.6,29.79,NW,315,3.8,4.3,21,0.00,,---,0.00,VWS V14.01,2013-03-01 18:03:00,
2013-03-01 13:05:00,65.3,26.6,29.76,West,270,2.0,4.3,23,0.00,,---,0.00,VWS V14.01,2013-03-01 18:05:00,
2013-03-01 13:08:00,72.3,30.2,29.79,WNW,292,5.6,5.6,21,0.00,,---,0.00,VWS V14.01,2013-03-01 18:08:00,
2013-03-01 13:10:00,64.8,26.1,29.76,WNW,292,2.2,4.7,23,0.00,,---,0.00,VWS V14.01,2013-03-01 18:10:00,
2013-03-01 13:13:00,71.8,29.8,29.79,NNW,338,3.8,5.8,21,0.00,,---,0.00,VWS V14.01,2013-03-01 18:13:00,
2013-03-01 13:15:00,64.8,26.1,29.76,WNW,292,3.4,6.3,23,0.00,,---,0.00,VWS V14.01,2013-03-01 18:15:00,
2013-03-01 13:18:00,71.8,29.8,29.79,NW,315,4.0,4.0,21,0.00,,---,0.00,VWS V14.01,2013-03-01 18:18:00,
2013-03-01 13:20:00,64.4,25.8,29.76,WSW,248,0.0,6.5,23,0.00,,---,0.00,VWS V14.01,2013-03-01 18:20:00,
2013-03-01 13:23:00,69.1,28.7,29.79,North,0,5.8,5.8,22,0.00,,---,0.00,VWS V14.01,2013-03-01 18:23:00,
2013-03-01 13:25:00,64.4,25.8,29.76,WNW,292,3.6,6.3,23,0.00,,---,0.00,VWS V14.01,2013-03-01 18:25:00,
2013-03-01 13:28:00,70.0,29.4,29.76,SE,135,4.3,4.7,22,0.00,,---,0.00,VWS V14.01,2013-03-01 18:28:00,
2013-03-01 13:30:00,63.7,26.2,29.76,West,270,2.0,5.6,24,0.00,,---,0.00,VWS V14.01,2013-03-01 18:30:00,
2013-03-01 13:33:00,69.3,28.8,29.76,North,0,4.9,8.7,22,0.00,,---,0.00,VWS V14.01,2013-03-01 18:33:00,
2013-03-01 13:35:00,63.7,26.2,29.76,West,270,2.0,7.8,24,0.00,,---,0.00,VWS V14.01,2013-03-01 18:35:00,
2013-03-01 13:38:00,68.2,27.9,29.76,ENE,68,2.9,4.3,22,0.00,,---,0.00,VWS V14.01,2013-03-01 18:38:00,
2013-03-01 13:40:00,63.1,25.8,29.76,South,180,0.0,7.8,24,0.00,,---,0.00,VWS V14.01,2013-03-01 18:40:00,
2013-03-01 13:43:00,66.9,27.9,29.76,West,270,3.4,4.3,23,0.00,,---,0.00,VWS V14.01,2013-03-01 18:43:00,
2013-03-01 13:45:00,63.0,25.6,29.76,West,270,2.7,7.2,24,0.00,,---,0.00,VWS V14.01,2013-03-01 18:45:00,
2013-03-01 13:48:00,67.1,28.1,29.76,North,0,2.5,4.0,23,0.00,,---,0.00,VWS V14.01,2013-03-01 18:48:00,
2013-03-01 13:50:00,62.8,25.5,29.76,WSW,248,3.4,5.6,24,0.00,,---,0.00,VWS V14.01,2013-03-01 18:50:00,
2013-03-01 13:53:00,66.6,27.6,29.76,South,180,2.0,3.1,23,0.00,,---,0.00,VWS V14.01,2013-03-01 18:53:00,
2013-03-01 13:55:00,62.4,25.2,29.76,WSW,248,4.9,7.4,24,0.00,,---,0.00,VWS V14.01,2013-03-01 18:55:00,
2013-03-01 13:58:00,65.7,26.9,29.76,West,270,2.5,3.6,23,0.00,,---,0.00,VWS V14.01,2013-03-01 18:58:00,
2013-03-01 14:00:00,63.0,25.6,29.76,WSW,248,2.7,5.6,24,0.00,,---,0.00,VWS V14.01,2013-03-01 19:00:00,
2013-03-01 14:03:00,65.3,26.6,29.76,WNW,292,3.1,4.3,23,0.00,,---,0.00,VWS V14.01,2013-03-01 19:03:00,
2013-03-01 14:05:00,63.0,25.6,29.76,WNW,292,3.1,5.8,24,0.00,,---,0.00,VWS V14.01,2013-03-01 19:05:00,
2013-03-01 14:08:00,65.3,26.6,29.76,ESE,112,3.4,4.0,23,0.00,,---,0.00,VWS V14.01,2013-03-01 19:08:00,
2013-03-01 14:10:00,63.1,25.8,29.76,West,270,2.9,5.8,24,0.00,,---,0.00,VWS V14.01,2013-03-01 19:10:00,
2013-03-01 14:13:00,65.1,26.4,29.76,West,270,0.0,4.7,23,0.00,,---,0.00,VWS V14.01,2013-03-01 19:13:00,
2013-03-01 14:15:00,63.9,26.4,29.76,WSW,248,3.8,7.8,24,0.00,,---,0.00,VWS V14.01,2013-03-01 19:15:00,
2013-03-01 14:18:00,64.4,25.8,29.76,West,270,2.7,6.5,23,0.00,,---,0.00,VWS V14.01,2013-03-01 19:18:00,
2013-03-01 14:20:00,63.9,26.4,29.76,WSW,248,3.6,7.8,24,0.00,,---,0.00,VWS V14.01,2013-03-01 19:20:00,
2013-03-01 14:23:00,64.2,26.7,29.76,West,270,4.3,4.3,24,0.00,,---,0.00,VWS V14.01,2013-03-01 19:23:00,
2013-03-01 14:25:00,63.9,26.4,29.76,South,180,3.4,5.4,24,0.00,,---,0.00,VWS V14.01,2013-03-01 19:25:00,
2013-03-01 14:28:00,64.2,26.7,29.76,West,270,2.2,5.4,24,0.00,,---,0.00,VWS V14.01,2013-03-01 19:28:00,
2013-03-01 14:30:00,64.4,25.8,29.76,NW,315,2.9,4.7,23,0.00,,---,0.00,VWS V14.01,2013-03-01 19:30:00,
2013-03-01 14:33:00,63.7,26.2,29.76,WSW,248,2.7,7.8,24,0.00,,---,0.00,VWS V14.01,2013-03-01 19:33:00,
2013-03-01 14:35:00,64.6,26.0,29.76,WNW,292,2.7,5.6,23,0.00,,---,0.00,VWS V14.01,2013-03-01 19:35:00,
2013-03-01 14:38:00,63.3,25.9,29.76,SSW,202,2.9,7.8,24,0.00,,---,0.00,VWS V14.01,2013-03-01 19:38:00,
2013-03-01 14:40:00,63.3,25.9,29.76,NNW,338,3.8,4.7,24,0.00,,---,0.00,VWS V14.01,2013-03-01 19:40:00,
2013-03-01 14:43:00,62.8,25.5,29.76,WSW,248,3.6,4.7,24,0.00,,---,0.00,VWS V14.01,2013-03-01 19:43:00,
2013-03-01 14:45:00,63.5,26.1,29.76,WNW,292,2.9,4.9,24,0.00,,---,0.00,VWS V14.01,2013-03-01 19:45:00,
2013-03-01 14:48:00,62.8,25.5,29.76,WSW,248,3.4,5.6,24,0.00,,---,0.00,VWS V14.01,2013-03-01 19:48:00,
2013-03-01 14:50:00,62.2,25.0,29.76,West,270,4.9,5.8,24,0.00,,---,0.00,VWS V14.01,2013-03-01 19:50:00,
2013-03-01 14:53:00,62.8,25.5,29.76,SSW,202,4.3,5.4,24,0.00,,---,0.00,VWS V14.01,2013-03-01 19:53:00,
2013-03-01 14:55:00,61.5,25.4,29.76,WSW,248,3.1,4.9,25,0.00,,---,0.00,VWS V14.01,2013-03-01 19:55:00,
2013-03-01 14:58:00,62.6,25.3,29.76,West,270,4.3,5.6,24,0.00,,---,0.00,VWS V14.01,2013-03-01 19:58:00,
2013-03-01 15:00:00,61.3,25.2,29.80,WNW,292,1.6,5.6,25,0.00,,---,0.00,VWS V14.01,2013-03-01 20:00:00,
2013-03-01 15:03:00,63.1,25.8,29.76,East,90,3.4,4.0,24,0.00,,---,0.00,VWS V14.01,2013-03-01 20:03:00,
2013-03-01 15:05:00,60.4,24.5,29.80,West,270,2.9,6.3,25,0.00,,---,0.00,VWS V14.01,2013-03-01 20:05:00,
2013-03-01 15:08:00,63.1,25.8,29.76,SW,225,0.0,4.3,24,0.00,,---,0.00,VWS V14.01,2013-03-01 20:08:00,
2013-03-01 15:10:00,60.6,25.6,29.80,WNW,292,2.2,4.3,26,0.00,,---,0.00,VWS V14.01,2013-03-01 20:10:00,
2013-03-01 15:13:00,63.5,26.1,29.76,West,270,3.8,4.0,24,0.00,,---,0.00,VWS V14.01,2013-03-01 20:13:00,
2013-03-01 15:15:00,60.4,25.4,29.80,West,270,0.0,7.8,26,0.00,,---,0.00,VWS V14.01,2013-03-01 20:15:00,
2013-03-01 15:18:00,63.7,26.2,29.76,WNW,292,2.0,7.8,24,0.00,,---,0.00,VWS V14.01,2013-03-01 20:18:00,
2013-03-01 15:20:00,60.4,25.4,29.80,WNW,292,0.0,3.4,26,0.00,,---,0.00,VWS V14.01,2013-03-01 20:20:00,
2013-03-01 15:23:00,63.9,26.4,29.76,WSW,248,1.6,4.0,24,0.00,,---,0.00,VWS V14.01,2013-03-01 20:23:00,
2013-03-01 15:25:00,59.9,25.0,29.80,WNW,292,2.0,4.9,26,0.00,,---,0.00,VWS V14.01,2013-03-01 20:25:00,
2013-03-01 15:28:00,64.4,25.8,29.76,ENE,68,2.7,4.7,23,0.00,,---,0.00,VWS V14.01,2013-03-01 20:28:00,
2013-03-01 15:30:00,59.5,25.5,29.80,West,270,4.0,4.0,27,0.00,,---,0.00,VWS V14.01,2013-03-01 20:30:00,
2013-03-01 15:33:00,64.4,25.8,29.76,NNE,22,4.3,5.6,23,0.00,,---,0.00,VWS V14.01,2013-03-01 20:33:00,
2013-03-01 15:35:00,59.4,25.4,29.80,WSW,248,2.7,6.3,27,0.00,,---,0.00,VWS V14.01,2013-03-01 20:35:00,
2013-03-01 15:38:00,63.9,25.4,29.76,NNE,22,2.0,4.7,23,0.00,,---,0.00,VWS V14.01,2013-03-01 20:38:00,
2013-03-01 15:40:00,59.2,25.2,29.80,WSW,248,0.0,5.4,27,0.00,,---,0.00,VWS V14.01,2013-03-01 20:40:00,
2013-03-01 15:43:00,63.1,25.8,29.76,West,270,0.0,3.8,24,0.00,,---,0.00,VWS V14.01,2013-03-01 20:43:00,
2013-03-01 15:45:00,59.0,26.0,29.80,WSW,248,0.0,4.0,28,0.00,,---,0.00,VWS V14.01,2013-03-01 20:45:00,
2013-03-01 15:48:00,63.1,25.8,29.76,WNW,292,2.7,3.4,24,0.00,,---,0.00,VWS V14.01,2013-03-01 20:48:00,
2013-03-01 15:50:00,58.5,26.3,29.80,WSW,248,0.0,5.4,29,0.00,,---,0.00,VWS V14.01,2013-03-01 20:50:00,
2013-03-01 15:53:00,62.1,24.9,29.76,WNW,292,3.8,4.9,24,0.00,,---,0.00,VWS V14.01,2013-03-01 20:53:00,
2013-03-01 15:55:00,58.5,26.3,29.80,SW,225,0.0,3.6,29,0.00,,---,0.00,VWS V14.01,2013-03-01 20:55:00,
2013-03-01 15:58:00,61.3,25.2,29.79,SW,225,2.9,5.4,25,0.00,,---,0.00,VWS V14.01,2013-03-01 20:58:00,
2013-03-01 16:00:00,58.1,26.0,29.80,WSW,248,0.0,3.1,29,0.00,,---,0.00,VWS V14.01,2013-03-01 21:00:00,
2013-03-01 16:03:00,61.0,24.9,29.79,WSW,248,0.9,5.6,25,0.00,,---,0.00,VWS V14.01,2013-03-01 21:03:00,
2013-03-01 16:05:00,58.1,26.9,29.80,West,270,2.9,5.6,30,0.00,,---,0.00,VWS V14.01,2013-03-01 21:05:00,
2013-03-01 16:08:00,60.3,24.3,29.79,West,270,0.0,4.3,25,0.00,,---,0.00,VWS V14.01,2013-03-01 21:08:00,
2013-03-01 16:10:00,57.7,26.5,29.80,ENE,68,0.0,2.9,30,0.00,,---,0.00,VWS V14.01,2013-03-01 21:10:00,
2013-03-01 16:13:00,60.6,25.6,29.79,WNW,292,1.1,5.4,26,0.00,,---,0.00,VWS V14.01,2013-03-01 21:13:00,
2013-03-01 16:15:00,57.6,26.4,29.80,WSW,248,0.0,3.6,30,0.00,,---,0.00,VWS V14.01,2013-03-01 21:15:00,
2013-03-01 16:18:00,60.6,25.6,29.79,WSW,248,0.0,3.4,26,0.00,,---,0.00,VWS V14.01,2013-03-01 21:18:00,
2013-03-01 16:20:00,57.2,26.9,29.80,WSW,248,5.8,5.8,31,0.00,,---,0.00,VWS V14.01,2013-03-01 21:20:00,
2013-03-01 16:23:00,60.4,25.4,29.79,SW,225,1.6,4.9,26,0.00,,---,0.00,VWS V14.01,2013-03-01 21:23:00,
2013-03-01 16:25:00,56.7,26.4,29.80,ESE,112,2.5,5.8,31,0.00,,---,0.00,VWS V14.01,2013-03-01 21:25:00,
2013-03-01 16:28:00,59.9,25.0,29.79,WSW,248,0.9,4.0,26,0.00,,---,0.00,VWS V14.01,2013-03-01 21:28:00,
2013-03-01 16:30:00,56.7,27.2,29.80,NW,315,3.1,4.3,32,0.00,,---,0.00,VWS V14.01,2013-03-01 21:30:00,
2013-03-01 16:33:00,59.4,25.4,29.79,WSW,248,0.0,4.0,27,0.00,,---,0.00,VWS V14.01,2013-03-01 21:33:00,
2013-03-01 16:35:00,56.1,26.7,29.80,WSW,248,0.0,5.4,32,0.00,,---,0.00,VWS V14.01,2013-03-01 21:35:00,
2013-03-01 16:38:00,59.0,25.1,29.79,WNW,292,2.7,5.4,27,0.00,,---,0.00,VWS V14.01,2013-03-01 21:38:00,
2013-03-01 16:40:00,55.9,27.3,29.80,West,270,1.3,4.0,33,0.00,,---,0.00,VWS V14.01,2013-03-01 21:40:00,
2013-03-01 16:43:00,59.0,26.0,29.79,West,270,1.1,4.0,28,0.00,,---,0.00,VWS V14.01,2013-03-01 21:43:00,
2013-03-01 16:45:00,55.8,27.8,29.80,WSW,248,2.0,2.5,34,0.00,,---,0.00,VWS V14.01,2013-03-01 21:45:00,
2013-03-01 16:48:00,58.8,26.6,29.79,West,270,1.3,3.6,29,0.00,,---,0.00,VWS V14.01,2013-03-01 21:48:00,
2013-03-01 16:50:00,55.8,27.8,29.80,West,270,0.0,2.0,34,0.00,,---,0.00,VWS V14.01,2013-03-01 21:50:00,
2013-03-01 16:53:00,58.3,26.2,29.79,West,270,2.0,3.6,29,0.00,,---,0.00,VWS V14.01,2013-03-01 21:53:00,
2013-03-01 16:55:00,55.4,28.2,29.80,NNE,22,0.0,2.9,35,0.00,,---,0.00,VWS V14.01,2013-03-01 21:55:00,
2013-03-01 16:58:00,58.1,26.0,29.79,WSW,248,0.9,3.1,29,0.00,,---,0.00,VWS V14.01,2013-03-01 21:58:00,
2013-03-01 17:00:00,55.0,27.9,29.80,WNW,292,0.9,0.9,35,0.00,,---,0.00,VWS V14.01,2013-03-01 22:00:00,
2013-03-01 17:03:00,58.1,26.0,29.79,WSW,248,1.6,2.2,29,0.00,,---,0.00,VWS V14.01,2013-03-01 22:03:00,
2013-03-01 17:05:00,55.0,28.6,29.80,NNE,22,1.3,3.1,36,0.00,,---,0.00,VWS V14.01,2013-03-01 22:05:00,
2013-03-01 17:08:00,57.9,26.7,29.79,WNW,292,1.6,2.9,30,0.00,,---,0.00,VWS V14.01,2013-03-01 22:08:00,
2013-03-01 17:10:00,54.7,28.3,29.80,West,270,2.0,3.6,36,0.00,,---,0.00,VWS V14.01,2013-03-01 22:10:00,
2013-03-01 17:13:00,57.6,26.4,29.79,NNW,338,1.1,2.9,30,0.00,,---,0.00,VWS V14.01,2013-03-01 22:13:00,
2013-03-01 17:15:00,54.5,28.1,29.80,West,270,0.0,3.1,36,0.00,,---,0.00,VWS V14.01,2013-03-01 22:15:00,
2013-03-01 17:18:00,57.4,27.0,29.79,West,270,1.6,3.1,31,0.00,,---,0.00,VWS V14.01,2013-03-01 22:18:00,
2013-03-01 17:20:00,54.3,28.0,29.80,WSW,248,2.9,3.6,36,0.00,,---,0.00,VWS V14.01,2013-03-01 22:20:00,
2013-03-01 17:23:00,56.8,26.5,29.79,West,270,2.7,5.8,31,0.00,,---,0.00,VWS V14.01,2013-03-01 22:23:00,
2013-03-01 17:25:00,54.1,27.8,29.80,West,270,3.4,6.3,36,0.00,,---,0.00,VWS V14.01,2013-03-01 22:25:00,
2013-03-01 17:28:00,56.7,26.4,29.79,NNE,22,2.7,2.9,31,0.00,,---,0.00,VWS V14.01,2013-03-01 22:28:00,
2013-03-01 17:30:00,54.0,27.6,29.80,West,270,2.5,3.6,36,0.00,,---,0.00,VWS V14.01,2013-03-01 22:30:00,
2013-03-01 17:33:00,56.3,26.8,29.79,WSW,248,0.0,5.4,32,0.00,,---,0.00,VWS V14.01,2013-03-01 22:33:00,
2013-03-01 17:35:00,54.0,28.3,29.80,West,270,0.0,2.9,37,0.00,,---,0.00,VWS V14.01,2013-03-01 22:35:00,
2013-03-01 17:38:00,56.1,27.4,29.79,WSW,248,0.0,3.8,33,0.00,,---,0.00,VWS V14.01,2013-03-01 22:38:00,
2013-03-01 17:40:00,53.6,28.0,29.80,West,270,0.0,3.4,37,0.00,,---,0.00,VWS V14.01,2013-03-01 22:40:00,
2013-03-01 17:43:00,55.9,27.3,29.79,West,270,0.0,2.5,33,0.00,,---,0.00,VWS V14.01,2013-03-01 22:43:00,
2013-03-01 17:45:00,53.6,28.0,29.82,WSW,248,0.0,3.1,37,0.00,,---,0.00,VWS V14.01,2013-03-01 22:45:00,
2013-03-01 17:48:00,55.8,27.8,29.79,NNW,338,1.3,2.0,34,0.00,,---,0.00,VWS V14.01,2013-03-01 22:48:00,
2013-03-01 17:50:00,53.4,28.5,29.82,West,270,1.3,4.3,38,0.00,,---,0.00,VWS V14.01,2013-03-01 22:50:00,
2013-03-01 17:53:00,55.4,28.2,29.79,West,270,2.0,2.0,35,0.00,,---,0.00,VWS V14.01,2013-03-01 22:53:00,
2013-03-01 17:55:00,53.2,28.3,29.82,WNW,292,0.0,1.3,38,0.00,,---,0.00,VWS V14.01,2013-03-01 22:55:00,
2013-03-01 17:58:00,55.2,28.1,29.79,WSW,248,0.0,0.0,35,0.00,,---,0.00,VWS V14.01,2013-03-01 22:58:00,
2013-03-01 18:00:00,53.2,28.9,29.82,SW,225,0.0,3.1,39,0.00,,---,0.00,VWS V14.01,2013-03-01 23:00:00,
2013-03-01 18:04:00,55.0,28.6,29.79,West,270,0.0,1.1,36,0.00,,---,0.00,VWS V14.01,2013-03-01 23:04:00,
2013-03-01 18:05:00,53.1,28.8,29.82,West,270,0.0,0.0,39,0.00,,---,0.00,VWS V14.01,2013-03-01 23:05:00,
2013-03-01 18:09:00,54.7,28.3,29.79,WSW,248,2.2,3.6,36,0.00,,---,0.00,VWS V14.01,2013-03-01 23:09:00,
2013-03-01 18:10:00,53.1,29.4,29.82,WNW,292,2.5,4.3,40,0.00,,---,0.00,VWS V14.01,2013-03-01 23:10:00,
2013-03-01 18:14:00,54.5,28.1,29.79,West,270,0.0,2.7,36,0.00,,---,0.00,VWS V14.01,2013-03-01 23:14:00,
2013-03-01 18:15:00,53.1,30.0,29.82,West,270,1.6,3.6,41,0.00,,---,0.00,VWS V14.01,2013-03-01 23:15:00,
2013-03-01 18:19:00,54.3,28.0,29.79,West,270,2.5,2.5,36,0.00,,---,0.00,VWS V14.01,2013-03-01 23:19:00,
2013-03-01 18:20:00,52.9,30.4,29.82,West,270,2.7,3.6,42,0.00,,---,0.00,VWS V14.01,2013-03-01 23:20:00,
2013-03-01 18:24:00,54.1,27.8,29.79,West,270,3.1,4.0,36,0.00,,---,0.00,VWS V14.01,2013-03-01 23:24:00,
2013-03-01 18:25:00,52.9,31.0,29.82,WNW,292,0.0,2.9,43,0.00,,---,0.00,VWS V14.01,2013-03-01 23:25:00,
2013-03-01 18:29:00,54.1,27.8,29.79,West,270,0.0,3.6,36,0.00,,---,0.00,VWS V14.01,2013-03-01 23:29:00,
2013-03-01 18:30:00,52.9,31.6,29.82,West,270,0.0,4.3,44,0.00,,---,0.00,VWS V14.01,2013-03-01 23:30:00,
2013-03-01 18:34:00,54.0,28.3,29.79,WSW,248,0.0,2.5,37,0.00,,---,0.00,VWS V14.01,2013-03-01 23:34:00,
2013-03-01 18:35:00,52.7,32.0,29.82,WSW,248,1.6,3.8,45,0.00,,---,0.00,VWS V14.01,2013-03-01 23:35:00,
2013-03-01 18:39:00,53.8,28.1,29.79,West,270,1.1,3.4,37,0.00,,---,0.00,VWS V14.01,2013-03-01 23:39:00,
2013-03-01 18:40:00,52.7,32.0,29.82,ENE,68,3.1,3.1,45,0.00,,---,0.00,VWS V14.01,2013-03-01 23:40:00,
2013-03-01 18:44:00,53.6,28.0,29.82,WSW,248,0.0,0.0,37,0.00,,---,0.00,VWS V14.01,2013-03-01 23:44:00,
2013-03-01 18:45:00,52.5,31.8,29.82,WNW,292,0.0,3.1,45,0.00,,---,0.00,VWS V14.01,2013-03-01 23:45:00,
2013-03-01 18:49:00,53.4,28.5,29.82,NNW,338,1.1,4.3,38,0.00,,---,0.00,VWS V14.01,2013-03-01 23:49:00,
2013-03-01 18:50:00,52.5,31.8,29.82,West,270,0.0,3.8,45,0.00,,---,0.00,VWS V14.01,2013-03-01 23:50:00,
2013-03-01 18:54:00,53.2,28.3,29.82,West,270,0.0,1.3,38,0.00,,---,0.00,VWS V14.01,2013-03-01 23:54:00,
2013-03-01 18:55:00,52.3,31.6,29.82,SSW,202,1.6,2.2,45,0.00,,---,0.00,VWS V14.01,2013-03-01 23:55:00,
2013-03-01 18:59:00,53.2,28.9,29.82,West,270,1.3,3.1,39,0.00,,---,0.00,VWS V14.01,2013-03-01 23:59:00,
2013-03-01 19:00:00,52.3,32.2,29.82,NNW,338,2.2,3.6,46,0.00,,---,0.00,VWS V14.01,2013-03-02 00:00:00,
2013-03-01 19:04:00,53.1,28.8,29.82,WSW,248,0.0,0.0,39,0.00,,---,0.00,VWS V14.01,2013-03-02 00:04:00,
2013-03-01 19:05:00,52.3,32.2,29.82,West,270,0.0,2.2,46,0.00,,---,0.00,VWS V14.01,2013-03-02 00:05:00,
2013-03-01 19:09:00,53.1,29.4,29.82,WNW,292,4.3,4.3,40,0.00,,---,0.00,VWS V14.01,2013-03-02 00:09:00,
2013-03-01 19:10:00,52.2,32.0,29.82,WSW,248,0.0,2.5,46,0.00,,---,0.00,VWS V14.01,2013-03-02 00:10:00,
2013-03-01 19:14:00,53.1,29.4,29.82,SW,225,0.0,2.5,40,0.00,,---,0.00,VWS V14.01,2013-03-02 00:14:00,
2013-03-01 19:15:00,52.2,32.0,29.85,WSW,248,1.6,2.5,46,0.00,,---,0.00,VWS V14.01,2013-03-02 00:15:00,
2013-03-01 19:19:00,53.1,30.6,29.82,West,270,2.2,3.6,42,0.00,,---,0.00,VWS V14.01,2013-03-02 00:19:00,
2013-03-01 19:20:00,52.0,31.9,29.85,WSW,248,0.0,2.7,46,0.00,,---,0.00,VWS V14.01,2013-03-02 00:20:00,
2013-03-01 19:24:00,52.9,31.0,29.82,West,270,1.1,2.9,43,0.00,,---,0.00,VWS V14.01,2013-03-02 00:24:00,
2013-03-01 19:25:00,52.0,32.4,29.85,West,270,2.0,3.6,47,0.00,,---,0.00,VWS V14.01,2013-03-02 00:25:00,
2013-03-01 19:29:00,52.9,31.6,29.82,WSW,248,0.0,4.3,44,0.00,,---,0.00,VWS V14.01,2013-03-02 00:29:00,
2013-03-01 19:30:00,52.0,32.4,29.82,WNW,292,0.0,3.4,47,0.00,,---,0.00,VWS V14.01,2013-03-02 00:30:00,
2013-03-01 19:34:00,52.9,32.1,29.82,SSE,158,0.0,3.8,45,0.00,,---,0.00,VWS V14.01,2013-03-02 00:34:00,
2013-03-01 19:35:00,52.0,32.4,29.82,WNW,292,0.0,2.7,47,0.00,,---,0.00,VWS V14.01,2013-03-02 00:35:00,
2013-03-01 19:39:00,52.7,32.0,29.82,ESE,112,3.1,3.1,45,0.00,,---,0.00,VWS V14.01,2013-03-02 00:39:00,
2013-03-01 19:40:00,52.0,32.4,29.82,West,270,0.0,4.3,47,0.00,,---,0.00,VWS V14.01,2013-03-02 00:40:00,
2013-03-01 19:44:00,52.5,31.8,29.82,NNE,22,2.0,3.1,45,0.00,,---,0.00,VWS V14.01,2013-03-02 00:44:00,
2013-03-01 19:45:00,51.8,32.2,29.82,WNW,292,1.3,2.0,47,0.00,,---,0.00,VWS V14.01,2013-03-02 00:45:00,
2013-03-01 19:49:00,52.5,31.8,29.82,WSW,248,0.0,3.8,45,0.00,,---,0.00,VWS V14.01,2013-03-02 00:49:00,
2013-03-01 19:50:00,51.8,32.2,29.82,West,270,0.0,4.9,47,0.00,,---,0.00,VWS V14.01,2013-03-02 00:50:00,
2013-03-01 19:54:00,52.3,31.6,29.82,WSW,248,0.0,2.2,45,0.00,,---,0.00,VWS V14.01,2013-03-02 00:54:00,
2013-03-01 19:55:00,51.8,32.2,29.82,West,270,0.0,2.7,47,0.00,,---,0.00,VWS V14.01,2013-03-02 00:55:00,
2013-03-01 19:59:00,52.3,32.2,29.82,NW,315,0.0,3.6,46,0.00,,---,0.00,VWS V14.01,2013-03-02 00:59:00,
2013-03-01 20:00:00,51.8,32.2,29.82,WNW,292,2.5,2.5,47,0.00,,---,0.00,VWS V14.01,2013-03-02 01:00:00,
2013-03-01 20:04:00,52.3,32.2,29.82,WSW,248,2.0,2.2,46,0.00,,---,0.00,VWS V14.01,2013-03-02 01:04:00,
2013-03-01 20:05:00,51.6,32.6,29.82,WNW,292,0.0,2.5,48,0.00,,---,0.00,VWS V14.01,2013-03-02 01:05:00,
2013-03-01 20:09:00,52.2,32.0,29.82,WSW,248,0.0,2.5,46,0.00,,---,0.00,VWS V14.01,2013-03-02 01:09:00,
2013-03-01 20:10:00,51.6,32.6,29.82,WNW,292,2.0,2.0,48,0.00,,---,0.00,VWS V14.01,2013-03-02 01:10:00,
2013-03-01 20:14:00,52.2,32.0,29.85,NNW,338,1.1,2.5,46,0.00,,---,0.00,VWS V14.01,2013-03-02 01:14:00,
2013-03-01 20:15:00,51.6,32.6,29.82,WNW,292,0.9,2.5,48,0.00,,---,0.00,VWS V14.01,2013-03-02 01:15:00,
2013-03-01 20:19:00,52.2,32.6,29.85,WNW,292,2.0,2.7,47,0.00,,---,0.00,VWS V14.01,2013-03-02 01:19:00,
2013-03-01 20:20:00,51.6,32.6,29.82,NW,315,0.0,1.6,48,0.00,,---,0.00,VWS V14.01,2013-03-02 01:20:00,
2013-03-01 20:24:00,52.0,32.4,29.85,WSW,248,0.0,3.6,47,0.00,,---,0.00,VWS V14.01,2013-03-02 01:24:00,
2013-03-01 20:25:00,51.6,32.6,29.82,NW,315,1.1,2.9,48,0.00,,---,0.00,VWS V14.01,2013-03-02 01:25:00,
2013-03-01 20:29:00,52.0,32.4,29.82,WNW,292,3.4,3.4,47,0.00,,---,0.00,VWS V14.01,2013-03-02 01:29:00,
2013-03-01 20:30:00,51.6,32.6,29.85,NW,315,0.0,2.0,48,0.00,,---,0.00,VWS V14.01,2013-03-02 01:30:00,
2013-03-01 20:34:00,52.0,32.4,29.82,WNW,292,0.0,2.7,47,0.00,,---,0.00,VWS V14.01,2013-03-02 01:34:00,
2013-03-01 20:35:00,51.6,32.6,29.85,WNW,292,2.5,3.1,48,0.00,,---,0.00,VWS V14.01,2013-03-02 01:35:00,
2013-03-01 20:39:00,52.0,32.4,29.82,WSW,248,1.3,4.3,47,0.00,,---,0.00,VWS V14.01,2013-03-02 01:39:00,
2013-03-01 20:40:00,51.4,32.4,29.85,West,270,0.0,3.6,48,0.00,,---,0.00,VWS V14.01,2013-03-02 01:40:00,
2013-03-01 20:44:00,52.0,32.4,29.82,WSW,248,0.0,2.0,47,0.00,,---,0.00,VWS V14.01,2013-03-02 01:44:00,
2013-03-01 20:45:00,51.4,31.9,29.85,WNW,292,1.6,3.6,47,0.00,,---,0.00,VWS V14.01,2013-03-02 01:45:00,
2013-03-01 20:49:00,51.8,32.2,29.82,WNW,292,0.9,4.9,47,0.00,,---,0.00,VWS V14.01,2013-03-02 01:49:00,
2013-03-01 20:50:00,51.3,31.7,29.85,West,270,0.0,3.1,47,0.00,,---,0.00,VWS V14.01,2013-03-02 01:50:00,
2013-03-01 20:54:00,51.8,32.2,29.82,West,270,2.0,2.0,47,0.00,,---,0.00,VWS V14.01,2013-03-02 01:54:00,
2013-03-01 20:55:00,51.3,31.7,29.85,NW,315,0.0,2.0,47,0.00,,---,0.00,VWS V14.01,2013-03-02 01:55:00,
2013-03-01 20:59:00,51.8,32.2,29.82,WNW,292,0.0,1.1,47,0.00,,---,0.00,VWS V14.01,2013-03-02 01:59:00,
2013-03-01 21:00:00,51.1,31.6,29.85,WNW,292,0.0,2.2,47,0.00,,---,0.00,VWS V14.01,2013-03-02 02:00:00,
2013-03-01 21:04:00,51.8,32.8,29.82,NW,315,0.0,2.5,48,0.00,,---,0.00,VWS V14.01,2013-03-02 02:04:00,
2013-03-01 21:05:00,51.1,31.6,29.85,WNW,292,0.0,0.0,47,0.00,,---,0.00,VWS V14.01,2013-03-02 02:05:00,
2013-03-01 21:09:00,51.6,32.6,29.82,WNW,292,0.0,1.6,48,0.00,,---,0.00,VWS V14.01,2013-03-02 02:09:00,
2013-03-01 21:10:00,50.9,31.4,29.85,NNW,338,1.1,3.6,47,0.00,,---,0.00,VWS V14.01,2013-03-02 02:10:00,
2013-03-01 21:14:00,51.6,32.6,29.82,WNW,292,0.0,2.5,48,0.00,,---,0.00,VWS V14.01,2013-03-02 02:14:00,
2013-03-01 21:15:00,50.9,31.4,29.85,WNW,292,0.0,2.2,47,0.00,,---,0.00,VWS V14.01,2013-03-02 02:15:00,
2013-03-01 21:19:00,51.6,32.6,29.82,WNW,292,0.0,1.6,48,0.00,,---,0.00,VWS V14.01,2013-03-02 02:19:00,
2013-03-01 21:20:00,50.7,31.2,29.85,NNW,338,0.0,0.0,47,0.00,,---,0.00,VWS V14.01,2013-03-02 02:20:00,
2013-03-01 21:24:00,51.6,32.6,29.82,NNW,338,0.0,2.9,48,0.00,,---,0.00,VWS V14.01,2013-03-02 02:24:00,
2013-03-01 21:25:00,50.7,31.2,29.85,NW,315,0.0,3.1,47,0.00,,---,0.00,VWS V14.01,2013-03-02 02:25:00,
2013-03-01 21:29:00,51.6,32.6,29.85,West,270,0.0,2.0,48,0.00,,---,0.00,VWS V14.01,2013-03-02 02:29:00,
2013-03-01 21:30:00,50.7,31.2,29.85,WNW,292,0.0,3.1,47,0.00,,---,0.00,VWS V14.01,2013-03-02 02:30:00,
2013-03-01 21:34:00,51.6,32.6,29.85,East,90,2.2,2.7,48,0.00,,---,0.00,VWS V14.01,2013-03-02 02:34:00,
2013-03-01 21:35:00,50.5,31.1,29.85,NNW,338,0.0,0.0,47,0.00,,---,0.00,VWS V14.01,2013-03-02 02:35:00,
2013-03-01 21:39:00,51.4,32.4,29.85,NNW,338,3.6,3.6,48,0.00,,---,0.00,VWS V14.01,2013-03-02 02:39:00,
2013-03-01 21:40:00,50.5,31.1,29.85,NW,315,0.0,0.0,47,0.00,,---,0.00,VWS V14.01,2013-03-02 02:40:00,
2013-03-01 21:44:00,51.4,31.9,29.85,WNW,292,2.2,3.1,47,0.00,,---,0.00,VWS V14.01,2013-03-02 02:44:00,
2013-03-01 21:45:00,50.5,31.1,29.85,WNW,292,0.0,2.5,47,0.00,,---,0.00,VWS V14.01,2013-03-02 02:45:00,
2013-03-01 21:49:00,51.4,31.9,29.85,WNW,292,0.0,3.1,47,0.00,,---,0.00,VWS V14.01,2013-03-02 02:49:00,
2013-03-01 21:50:00,50.5,31.1,29.85,West,270,0.0,2.2,47,0.00,,---,0.00,VWS V14.01,2013-03-02 02:50:00,
2013-03-01 21:54:00,51.3,31.7,29.85,NW,315,0.0,2.0,47,0.00,,---,0.00,VWS V14.01,2013-03-02 02:54:00,
2013-03-01 21:55:00,50.5,31.1,29.85,WNW,292,2.9,3.4,47,0.00,,---,0.00,VWS V14.01,2013-03-02 02:55:00,
2013-03-01 21:59:00,51.1,31.6,29.85,NW,315,0.0,0.0,47,0.00,,---,0.00,VWS V14.01,2013-03-02 02:59:00,
2013-03-01 22:00:00,50.5,30.5,29.85,NNW,338,2.5,4.9,46,0.00,,---,0.00,VWS V14.01,2013-03-02 03:00:00,
2013-03-01 22:04:00,51.1,31.6,29.85,SSW,202,0.0,0.0,47,0.00,,---,0.00,VWS V14.01,2013-03-02 03:04:00,
2013-03-01 22:05:00,50.5,30.5,29.85,NW,315,0.0,5.6,46,0.00,,---,0.00,VWS V14.01,2013-03-02 03:05:00,
2013-03-01 22:09:00,50.9,31.4,29.85,WNW,292,0.0,0.0,47,0.00,,---,0.00,VWS V14.01,2013-03-02 03:09:00,
2013-03-01 22:10:00,50.5,29.5,29.85,NW,315,2.7,6.0,44,0.00,,---,0.00,VWS V14.01,2013-03-02 03:10:00,
2013-03-01 22:14:00,50.9,31.4,29.85,NNW,338,0.0,2.2,47,0.00,,---,0.00,VWS V14.01,2013-03-02 03:14:00,
2013-03-01 22:15:00,50.5,29.5,29.85,West,270,4.0,5.4,44,0.00,,---,0.00,VWS V14.01,2013-03-02 03:15:00,
2013-03-01 22:19:00,50.7,31.2,29.85,NW,315,0.0,0.0,47,0.00,,---,0.00,VWS V14.01,2013-03-02 03:19:00,
2013-03-01 22:20:00,50.4,29.3,29.85,WNW,292,0.0,4.0,44,0.00,,---,0.00,VWS V14.01,2013-03-02 03:20:00,
2013-03-01 22:24:00,50.7,31.2,29.85,NNW,338,0.0,0.0,47,0.00,,---,0.00,VWS V14.01,2013-03-02 03:24:00,
2013-03-01 22:25:00,50.4,29.3,29.85,WNW,292,0.0,4.9,44,0.00,,---,0.00,VWS V14.01,2013-03-02 03:25:00,
2013-03-01 22:29:00,50.7,31.2,29.85,NNW,338,1.6,3.1,47,0.00,,---,0.00,VWS V14.01,2013-03-02 03:29:00,
2013-03-01 22:30:00,50.2,29.1,29.88,West,270,4.7,4.7,44,0.00,,---,0.00,VWS V14.01,2013-03-02 03:30:00,
2013-03-01 22:34:00,50.5,31.1,29.85,NNW,338,0.0,0.0,47,0.00,,---,0.00,VWS V14.01,2013-03-02 03:34:00,
2013-03-01 22:35:00,50.2,28.6,29.88,WNW,292,1.6,4.7,43,0.00,,---,0.00,VWS V14.01,2013-03-02 03:35:00,
2013-03-01 22:39:00,50.5,31.1,29.85,NW,315,0.0,0.0,47,0.00,,---,0.00,VWS V14.01,2013-03-02 03:39:00,
2013-03-01 22:40:00,50.0,28.4,29.88,NW,315,0.0,2.7,43,0.00,,---,0.00,VWS V14.01,2013-03-02 03:40:00,
2013-03-01 22:44:00,50.5,31.1,29.85,WSW,248,0.0,2.5,47,0.00,,---,0.00,VWS V14.01,2013-03-02 03:44:00,
2013-03-01 22:45:00,50.0,28.4,29.85,NW,315,0.0,3.1,43,0.00,,---,0.00,VWS V14.01,2013-03-02 03:45:00,
2013-03-01 22:49:00,50.5,31.1,29.85,NNW,338,1.1,1.1,47,0.00,,---,0.00,VWS V14.01,2013-03-02 03:49:00,
2013-03-01 22:50:00,49.8,28.2,29.85,NNW,338,2.7,8.7,43,0.00,,---,0.00,VWS V14.01,2013-03-02 03:50:00,
2013-03-01 22:54:00,50.5,31.1,29.85,NNW,338,0.0,3.4,47,0.00,,---,0.00,VWS V14.01,2013-03-02 03:54:00,
2013-03-01 22:55:00,49.8,28.2,29.85,NNW,338,0.0,4.3,43,0.00,,---,0.00,VWS V14.01,2013-03-02 03:55:00,
2013-03-01 22:59:00,50.5,30.5,29.85,SW,225,4.9,4.9,46,0.00,,---,0.00,VWS V14.01,2013-03-02 03:59:00,
2013-03-01 23:00:00,49.6,28.1,29.85,NW,315,0.0,0.0,43,0.00,,---,0.00,VWS V14.01,2013-03-02 04:00:00,
2013-03-01 23:04:00,50.5,30.5,29.85,NW,315,0.0,5.6,46,0.00,,---,0.00,VWS V14.01,2013-03-02 04:04:00,
2013-03-01 23:05:00,49.5,27.9,29.85,West,270,1.3,3.4,43,0.00,,---,0.00,VWS V14.01,2013-03-02 04:05:00,
2013-03-01 23:09:00,50.5,30.0,29.85,NW,315,4.0,6.0,45,0.00,,---,0.00,VWS V14.01,2013-03-02 04:09:00,
2013-03-01 23:10:00,49.5,27.3,29.85,West,270,3.6,4.0,42,0.00,,---,0.00,VWS V14.01,2013-03-02 04:10:00,
2013-03-01 23:14:00,50.5,29.5,29.85,NW,315,1.1,4.0,44,0.00,,---,0.00,VWS V14.01,2013-03-02 04:14:00,
2013-03-01 23:15:00,49.5,27.3,29.85,West,270,0.9,3.6,42,0.00,,---,0.00,VWS V14.01,2013-03-02 04:15:00,
2013-03-01 23:19:00,50.5,29.5,29.85,NW,315,1.1,4.0,44,0.00,,---,0.00,VWS V14.01,2013-03-02 04:19:00,
2013-03-01 23:20:00,49.3,27.2,29.85,WNW,292,1.3,2.7,42,0.00,,---,0.00,VWS V14.01,2013-03-02 04:20:00,
2013-03-01 23:24:00,50.4,29.3,29.85,West,270,1.3,4.9,44,0.00,,---,0.00,VWS V14.01,2013-03-02 04:24:00,
2013-03-01 23:25:00,49.3,27.2,29.85,West,270,0.0,2.9,42,0.00,,---,0.00,VWS V14.01,2013-03-02 04:25:00,
2013-03-01 23:29:00,50.4,29.3,29.88,West,270,1.1,4.3,44,0.00,,---,0.00,VWS V14.01,2013-03-02 04:29:00,
2013-03-01 23:30:00,49.3,27.2,29.85,NW,315,2.7,4.3,42,0.00,,---,0.00,VWS V14.01,2013-03-02 04:30:00,
2013-03-01 23:34:00,50.2,28.6,29.88,WNW,292,0.0,4.7,43,0.00,,---,0.00,VWS V14.01,2013-03-02 04:34:00,
2013-03-01 23:35:00,49.1,27.0,29.85,West,270,1.3,2.9,42,0.00,,---,0.00,VWS V14.01,2013-03-02 04:35:00,
2013-03-01 23:39:00,50.0,28.4,29.88,North,0,2.7,2.7,43,0.00,,---,0.00,VWS V14.01,2013-03-02 04:39:00,
2013-03-01 23:40:00,49.1,27.0,29.85,WNW,292,2.7,3.6,42,0.00,,---,0.00,VWS V14.01,2013-03-02 04:40:00,
2013-03-01 23:44:00,50.0,28.4,29.85,West,270,0.0,3.1,43,0.00,,---,0.00,VWS V14.01,2013-03-02 04:44:00,
2013-03-01 23:45:00,49.1,26.4,29.85,NNW,338,3.8,4.0,41,0.00,,---,0.00,VWS V14.01,2013-03-02 04:45:00,
2013-03-01 23:49:00,49.8,28.8,29.85,WSW,248,0.0,2.5,44,0.00,,---,0.00,VWS V14.01,2013-03-02 04:49:00,
2013-03-01 23:50:00,49.1,26.4,29.85,NW,315,1.6,5.8,41,0.00,,---,0.00,VWS V14.01,2013-03-02 04:50:00,
2013-03-01 23:54:00,49.8,28.2,29.85,NNW,338,2.7,4.0,43,0.00,,---,0.00,VWS V14.01,2013-03-02 04:54:00,
2013-03-01 23:55:00,48.9,26.3,29.85,WNW,292,0.0,4.3,41,0.00,,---,0.00,VWS V14.01,2013-03-02 04:55:00,
2013-03-01 23:59:00,49.6,28.1,29.85,NW,315,0.0,0.0,43,0.00,,---,0.00,VWS V14.01,2013-03-02 04:59:00,